This is the latest recevied weather packets stored in our database for station/object N2XP. If no packets are shown the sender has not sent any weather packets the latest 10 day(s).
| Time | Temp. | Humidity | Pressure | Rain* | Wind** | Luminosity | Snow |
|---|---|---|---|---|---|---|---|
| 1777778158 | 8.33° C | 56% | 1009.9 hPa | 0 mm | - | - | - |
| 1777777256 | 8.33° C | 59% | 1009.9 hPa | 0 mm | - | - | - |
| 1777776356 | 8.33° C | 56% | 1010 hPa | 0 mm | - | - | - |
| 1777775454 | 8.89° C | 55% | 1009.9 hPa | 0 mm | - | - | - |
| 1777774554 | 8.89° C | 53% | 1009.8 hPa | 0 mm | - | - | - |
| 1777773653 | 9.44° C | 52% | 1009.9 hPa | 0 mm | - | - | - |
| 1777772765 | 9.44° C | 54% | 1009.9 hPa | 0 mm | - | - | - |
| 1777771852 | 9.44° C | 49% | 1009.9 hPa | 0 mm | - | - | - |
| 1777770971 | 9.44° C | 48% | 1009.8 hPa | 0 mm | - | - | - |
| 1777770052 | 10° C | 49% | 1009.7 hPa | 0 mm | - | - | - |
| 1777769150 | 10° C | 49% | 1009.4 hPa | 0 mm | - | - | - |
| 1777768251 | 10.56° C | 50% | 1009.3 hPa | 0 mm | - | - | - |
| 1777767349 | 10.56° C | 51% | 1009.1 hPa | 0 mm | - | - | - |
| 1777766448 | 10.56° C | 49% | 1009 hPa | 0 mm | - | - | - |
| 1777765568 | 10.56° C | 49% | 1009 hPa | 0 mm | - | - | - |
| 1777764648 | 11.11° C | 48% | 1009 hPa | 0 mm | - | - | - |
| 1777763749 | 11.67° C | 45% | 1008.9 hPa | 0 mm | - | - | - |
| 1777762847 | 12.22° C | 43% | 1008.9 hPa | 0 mm | - | - | - |
| 1777761945 | 12.22° C | 45% | 1008.7 hPa | 0 mm | - | - | - |
| 1777761015 | 12.78° C | 42% | 1008.6 hPa | 0 mm | - | - | - |
| 1777760114 | 12.78° C | 44% | 1008.6 hPa | 0 mm | - | - | - |
| 1777759220 | 13.33° C | 42% | 1008.6 hPa | 0 mm | - | - | - |
| 1777758313 | 13.33° C | 41% | 1008.6 hPa | 0 mm | - | - | - |
| 1777757429 | 13.89° C | 40% | 1008.4 hPa | 0 mm | - | - | - |
| 1777756517 | 13.89° C | 41% | 1008.2 hPa | 0 mm | - | - | - |
* Rain latest hour (hover to see other rain measurements)
** Current wind speed in m/s (hover to see current wind gust speed)